EW1940 Weather Reports


Display with metric or nautical units.
time (UTC)temp
F
wind
direction
speed
MPH
gust
MPH
rain 1hr
in
rain 24hr
in
rain mn
in
humidity
%
barometer
mb
20260509223038 58 45 4.0 12.0 0.00 0.00 0.00 48 1016.2
20260509222057 59 45 4.0 9.0 0.00 0.00 0.00 47 1016.2
20260509221019 59 90 5.0 10.0 0.00 0.00 0.00 46 1016.2
20260509220018 59 68 4.0 10.0 0.00 0.00 0.00 45 1016.2
20260509215037 59 45 5.0 12.0 0.00 0.00 0.00 45 1016.1
20260509214017 60 68 5.0 10.0 0.00 0.00 0.00 46 1016.1
20260509213017 60 45 4.0 11.0 0.00 0.00 0.00 47 1016.1
20260509212017 60 45 5.0 11.0 0.00 0.00 0.00 47 1016.1
20260509211016 60 45 5.0 12.0 0.00 0.00 0.00 48 1016.2
20260509210038 60 45 4.0 10.0 0.00 0.00 0.00 48 1016.1
20260509205018 60 45 4.0 11.0 0.00 0.00 0.00 48 1016.0
20260509204017 60 45 4.0 10.0 0.00 0.00 0.00 48 1015.9
20260509203017 61 45 5.0 16.0 0.00 0.00 0.00 47 1015.7
20260509202018 61 45 5.0 11.0 0.00 0.00 0.00 48 1015.5
20260509201017 61 45 4.0 13.0 0.00 0.00 0.00 53 1015.4
20260509200016 62 45 5.0 10.0 0.00 0.00 0.00 55 1015.2
20260509195016 62 68 3.0 9.0 0.00 0.00 0.00 56 1015.3
20260509194017 63 45 2.0 5.0 0.00 0.00 0.00 56 1015.2
20260509193017 64 45 3.0 5.0 0.00 0.00 0.00 55 1015.2
20260509192018 64 45 3.0 8.0 0.00 0.00 0.00 53 1015.2
20260509191018 65 45 3.0 6.0 0.00 0.00 0.00 53 1015.3
20260509190017 66 45 2.0 7.0 0.00 0.00 0.00 53 1015.2
20260509185018 66 68 4.0 11.0 0.00 0.00 0.00 52 1015.0
20260509184038 67 68 4.0 13.0 0.00 0.00 0.00 52 1014.9
20260509183016 67 68 3.0 10.0 0.00 0.00 0.00 52 1014.8
20260509182039 67 45 5.0 11.0 0.00 0.00 0.00 51 1014.9
20260509181016 68 45 7.0 17.0 0.00 0.00 0.00 50 1014.8
20260509180018 69 45 5.0 11.0 0.00 0.00 0.00 50 1014.7
20260509175020 69 45 5.0 10.0 0.00 0.00 0.00 50 1014.6
20260509174018 70 68 3.0 8.0 0.00 0.00 0.00 49 1014.7
20260509173017 70 113 2.0 6.0 0.00 0.00 0.00 50 1014.6
20260509172016 71 113 4.0 8.0 0.00 0.00 0.00 49 1014.6
20260509171018 71 113 6.0 11.0 0.00 0.00 0.00 47 1014.5
20260509170017 71 113 5.0 11.0 0.00 0.00 0.00 48 1014.6
20260509165058 71 113 5.0 9.0 0.00 0.00 0.00 47 1014.6
20260509164016 72 113 5.0 10.0 0.00 0.00 0.00 46 1014.7
20260509163016 72 135 5.0 12.0 0.00 0.00 0.00 45 1014.7
20260509162016 72 113 8.0 15.0 0.00 0.00 0.00 45 1014.6
20260509161018 73 113 7.0 13.0 0.00 0.00 0.00 44 1014.7
20260509160016 73 113 8.0 14.0 0.00 0.00 0.00 44 1014.7
20260509155036 73 90 5.0 11.0 0.00 0.00 0.00 45 1014.7
20260509154016 73 113 6.0 13.0 0.00 0.00 0.00 46 1014.8
20260509153016 73 90 7.0 12.0 0.00 0.00 0.00 47 1015.0
20260509152037 72 90 7.0 15.0 0.00 0.00 0.00 46 1015.0
20260509151018 72 135 7.0 13.0 0.00 0.00 0.00 47 1015.1
20260509150017 71 113 7.0 12.0 0.00 0.00 0.00 47 1015.3
20260509145016 71 135 8.0 13.0 0.00 0.00 0.00 48 1015.4
20260509144016 70 135 9.0 15.0 0.00 0.00 0.00 48 1015.6
20260509143016 70 135 7.0 13.0 0.00 0.00 0.00 49 1015.6
20260509142016 70 135 9.0 15.0 0.00 0.00 0.00 49 1015.6
20260509141037 70 135 8.0 14.0 0.00 0.00 0.00 50 1015.5
20260509140019 71 135 9.0 15.0 0.00 0.00 0.00 49 1015.4
20260509135037 71 135 9.0 17.0 0.00 0.00 0.00 47 1015.4
20260509134016 72 135 8.0 14.0 0.00 0.00 0.00 48 1015.2
20260509133036 73 135 6.0 12.0 0.00 0.00 0.00 47 1015.1
20260509132038 72 135 6.0 12.0 0.00 0.00 0.00 47 1015.2
20260509131016 72 135 8.0 13.0 0.00 0.00 0.00 49 1015.4
20260509130017 74 135 5.0 12.0 0.00 0.00 0.00 46 1015.5
20260509125016 75 45 5.0 12.0 0.00 0.00 0.00 44 1015.5
20260509124017 75 90 4.0 9.0 0.00 0.00 0.00 40 1015.6
20260509123017 76 45 4.0 10.0 0.00 0.00 0.00 40 1015.6
20260509122016 76 113 5.0 10.0 0.00 0.00 0.00 41 1015.6
20260509121016 75 90 6.0 12.0 0.00 0.00 0.00 41 1015.7
20260509120016 75 90 5.0 9.0 0.00 0.00 0.00 41 1015.7
20260509115018 75 90 6.0 16.0 0.00 0.00 0.00 39 1015.9
20260509114017 75 45 5.0 9.0 0.00 0.00 0.00 40 1016.1
20260509113036 74 45 4.0 10.0 0.00 0.00 0.00 44 1016.3
20260509112016 74 90 6.0 11.0 0.00 0.00 0.00 45 1016.3
20260509111017 73 45 6.0 14.0 0.00 0.00 0.00 46 1016.4
20260509110038 73 90 6.0 13.0 0.00 0.00 0.00 46 1016.6
20260509105016 73 113 5.0 15.0 0.00 0.00 0.00 47 1016.6
20260509104017 71 113 5.0 13.0 0.00 0.00 0.00 52 1016.7
20260509103041 71 90 6.0 15.0 0.00 0.00 0.00 50 1016.9
20260509102017 71 45 5.0 11.0 0.00 0.00 0.00 53 1016.9
20260509101036 70 45 4.0 8.0 0.00 0.00 0.00 54 1016.9
20260509100015 70 90 3.0 8.0 0.00 0.00 0.00 54 1016.9
20260509095015 70 45 4.0 10.0 0.00 0.00 0.00 53 1017.0
20260509094015 70 68 4.0 8.0 0.00 0.00 0.00 54 1017.0
20260509093037 69 90 4.0 12.0 0.00 0.00 0.00 55 1017.0
20260509092017 69 45 4.0 9.0 0.00 0.00 0.00 54 1017.1
20260509091015 69 90 2.0 8.0 0.00 0.00 0.00 55 1017.1
20260509090015 69 113 4.0 9.0 0.00 0.00 0.00 55 1017.1
20260509085017 69 45 3.0 8.0 0.00 0.00 0.00 56 1017.2
20260509084017 68 45 3.0 8.0 0.00 0.00 0.00 56 1017.2
20260509083035 68 90 3.0 10.0 0.00 0.00 0.00 59 1017.3
20260509082037 67 90 3.0 9.0 0.00 0.00 0.00 60 1017.3
20260509081035 66 90 3.0 6.0 0.00 0.00 0.00 63 1017.4
20260509080016 65 45 3.0 8.0 0.00 0.00 0.00 65 1017.4
20260509075021 63 90 2.0 5.0 0.00 0.00 0.00 67 1017.4
20260509074039 63 68 3.0 5.0 0.00 0.00 0.00 67 1017.3
20260509073039 62 90 3.0 6.0 0.00 0.01 0.00 69 1017.3
20260509072019 61 90 2.0 8.0 0.00 0.01 0.00 71 1017.3
20260509071018 59 90 2.0 4.0 0.00 0.02 0.00 74 1017.2
20260509070017 58 45 3.0 7.0 0.00 0.02 0.00 76 1017.3
20260509065017 56 45 2.0 5.0 0.00 0.02 0.00 79 1017.2
20260509064019 54 45 3.0 5.0 0.00 0.02 0.00 81 1017.2
20260509063017 53 68 2.0 4.0 0.00 0.02 0.00 83 1017.1
20260509062040 52 23 2.0 7.0 0.00 0.02 0.00 84 1017.1
20260509061019 51 68 2.0 4.0 0.00 0.02 0.00 85 1017.0
20260509060037 50 45 3.0 5.0 0.00 0.02 0.00 85 1017.0
20260509055019 50 45 2.0 4.0 0.00 0.02 0.00 85 1016.9
20260509054037 49 45 2.0 4.0 0.00 0.02 0.00 85 1016.9
20260509053038 49 45 1.0 3.0 0.00 0.02 0.00 86 1016.9
20260509052017 48 45 1.0 3.0 0.00 0.02 0.00 85 1016.9
20260509051017 48 68 2.0 4.0 0.00 0.02 0.00 85 1016.7
20260509050017 48 45 2.0 4.0 0.00 0.02 0.00 85 1016.7
20260509045017 48 45 1.0 3.0 0.00 0.02 0.00 85 1016.8
20260509044019 48 45 2.0 5.0 0.00 0.02 0.00 85 1016.8
20260509043038 48 45 2.0 4.0 0.00 0.02 0.00 84 1016.8
20260509042037 48 68 1.0 3.0 0.00 0.02 0.00 84 1016.9
20260509041039 48 45 1.0 3.0 0.00 0.02 0.00 84 1017.0
20260509040038 48 68 1.0 4.0 0.00 0.02 0.00 84 1017.0
20260509035017 48 45 2.0 4.0 0.00 0.02 0.00 84 1016.9
20260509034018 48 68 1.0 4.0 0.00 0.02 0.00 85 1016.9
20260509033019 48 45 1.0 3.0 0.00 0.02 0.00 85 1016.9
20260509032017 48 45 2.0 4.0 0.00 0.02 0.00 85 1016.9
20260509031017 48 45 2.0 4.0 0.00 0.02 0.00 85 1016.9
20260509030019 48 45 2.0 4.0 0.00 0.02 0.00 84 1017.1
20260509025018 48 45 1.0 2.0 0.00 0.02 0.00 84 1017.1
20260509024038 48 45 1.0 3.0 0.00 0.02 0.00 84 1017.1
20260509023017 48 45 1.0 3.0 0.00 0.02 0.00 84 1017.1
20260509022018 48 45 1.0 4.0 0.00 0.02 0.00 83 1017.0
20260509021017 48 45 2.0 4.0 0.00 0.02 0.00 83 1016.9
20260509020019 48 45 2.0 4.0 0.00 0.02 0.00 83 1016.9
20260509015017 48 45 2.0 4.0 0.00 0.02 0.00 83 1016.9
20260509014017 48 45 3.0 7.0 0.00 0.02 0.00 84 1017.0
20260509013018 48 45 2.0 4.0 0.00 0.02 0.00 84 1017.0
20260509012017 48 45 1.0 3.0 0.00 0.02 0.00 84 1017.1
20260509011017 48 45 1.0 4.0 0.00 0.02 0.00 83 1017.1
20260509010017 49 45 2.0 4.0 0.00 0.02 0.00 83 1017.2
20260509005017 49 45 1.0 3.0 0.00 0.02 0.00 83 1017.3
20260509004018 49 45 1.0 3.0 0.00 0.02 0.00 83 1017.3
20260509003018 49 45 1.0 3.0 0.00 0.02 0.00 82 1017.4
20260509002018 49 45 1.0 3.0 0.00 0.02 0.00 82 1017.4
20260509001018 49 45 1.0 3.0 0.00 0.02 0.00 82 1017.4
20260509000017 50 45 2.0 3.0 0.00 0.02 0.00 82 1017.3
20260508235017 50 45 2.0 4.0 0.00 0.02 0.00 82 1017.3
20260508234018 50 45 2.0 4.0 0.00 0.02 0.00 82 1017.2
20260508233018 50 0.0 0.0 0.00 0.02 0.00 82 1017.3
20260508232037 50 0.0 0.0 0.00 0.02 0.00 82 1017.5
20260508231018 50 0.0 0.0 0.00 0.02 0.00 82 1017.5
20260508230017 50 68 1.0 3.0 0.00 0.02 0.02 83 1017.6
20260508225016 50 68 1.0 3.0 0.00 0.02 0.02 83 1017.5
20260508224016 50 0.0 1.0 0.00 0.02 0.02 84 1017.5